Location: Écuvilly
(49.6505°N, 2.9206°E)
Time: 06:45:04
(UTC+00:00)

Cosmos 2278 Rocket - Pass Details

Date: 17 November 2025
Orbit: 841 x 843 km, 71.0° (Epoch: 12 December)

Event Time Altitude Azimuth Distance (km) Brightness Sun altitude
Rises 17:50:17 0° 206° (SSW) 3,385 5.9 -17.2°
Reaches altitude 10° 17:52:43 10° 206° (SSW) 2,454 5.1 -17.6°
Maximum altitude 17:58:22 89° 120° (ESE) 849 2.1 -18.5°
Enters shadow 18:02:53 17° 29° (NNE) 2,033 3.9 -19.2°
